Regional Weather Roundup
Issued by NWS

Home | Current Version | Previous Version | Text Only | Print | Product List | Glossary On
Versions: 1 2 3 4 5 6 7 8 9 10 11 12 13 14 15 16 17 18 19 20 21 22 23 24 25 26 27 28 29 30 31 32 33 34 35 36 37 38 39 40 41 42 43 44 45 46 47 48 49 50
000
ASHW40 PHFO 201130
RWRHI

WEATHER ROUNDUP FOR HAWAII
NATIONAL WEATHER SERVICE HONOLULU HI
100 AM HST WED AUG 20 2014

THIS IS AN AUTOMATED REPORT THAT HAS NOT BEEN QUALITY CONTROLLED.

NOTE..."FAIR" INDICATES FEW OR NO CLOUDS BELOW 12,000 FEET WITH NO
SIGNIFICANT WEATHER AND/OR OBSTRUCTIONS TO VISIBILITY.

* - THESE SITES REPORT LIMITED FIELDS

HIZ001>004-201200-
KAUAI-NIIHAU-

CITY           SKY/WX    TMP DP  RH WIND       PRES   REMARKS
LIHUE APT      MOCLDY    77  68  73 NE7       30.00F
PORT ALLEN*      N/A     75 N/A N/A E10         N/A
POIPU*           N/A     77 N/A N/A NE7         N/A
PRINCEVILLE*   NOT AVBL
KOKOLE POINT*  NOT AVBL
MOLOAA DAIRY*  NOT AVBL
WAIMEA HTS*    NOT AVBL
PUU OPAE*      NOT AVBL
PUU LUA*       NOT AVBL
MAKAHA RIDGE*  NOT AVBL
$$

HIZ005>011-201200-
OAHU-

CITY           SKY/WX    TMP DP  RH WIND       PRES   REMARKS
HONOLULU       PTCLDY    78  67  68 N5        29.97F
KALAELOA       PTCLDY    74  66  76 E3        29.99S
KANEOHE MCB    CLEAR     77  67  71 E3        29.99F
WHEELER FIELD  FAIR      69  65  88 NW3       29.99F
BELLOWS*         N/A    N/A N/A N/A E13         N/A
KAHUKU*          N/A    N/A N/A N/A E9G16       N/A
WHEELER*       NOT AVBL
WAIANAE HARBOR NOT AVBL
DILLINGHAM*      N/A     68  66  94 CALM        N/A
KAHUKU TRN*      N/A     73  68  83 E8G17       N/A
KAWAILOA*      NOT AVBL
KII*             N/A     79  70  73 E14         N/A
MAKUA RANGE*     N/A     77  66  69 E6G12       N/A
OAHU FOREST NW NOT AVBL
SCHOFIELD BRK*   N/A     66  64  94 SW1         N/A
SCHOFIELD S*   NOT AVBL
WAIANAE VLY*   NOT AVBL
KUAOKALA*      NOT AVBL
HONOULIUULI*   NOT AVBL
MOKUOLOE IS*     N/A    N/A N/A N/A MISG        N/A
PALEHUA*       NOT AVBL
WAIAWA PHB*    NOT AVBL
$$

HIZ012>013-201200-
MOLOKAI-

CITY           SKY/WX    TMP DP  RH WIND       PRES   REMARKS
MOLOKAI AIRPT  CLEAR     73  68  84 CALM      29.99F
KALAUPAPA      NOT AVBL
MAKAPULAPAI*   NOT AVBL
MOLOKAI 1*     NOT AVBL
PUU ALII*        N/A     58  56  95 SE2G9       N/A
$$

HIZ016-201200-
KAHOOLAWE-

CITY           SKY/WX    TMP DP  RH WIND       PRES   REMARKS
KAHOOLAWE*     NOT AVBL
HAKIOAWA*      NOT AVBL
HONOKANAIA*      N/A     77  67  71 N8G18     29.98F
KANELOA*         N/A     75  68  78 NE10G22   30.07F
KEALIALALO*    NOT AVBL
LUA MAKIKA*    NOT AVBL
$$

HIZ014>015-201200-
LANAI-

CITY           SKY/WX    TMP DP  RH WIND       PRES   REMARKS
LANAI CITY     FAIR      70  66  86 NE8       30.03F
LANAI 1*       NOT AVBL
$$

HIZ017>028-201200-
MAUI-

CITY           SKY/WX    TMP DP  RH WIND       PRES   REMARKS
KAHULUI        PTCLDY    75  67  76 NE8       29.98F
KAPALUA-W MAUI NOT AVBL
HANA AIRPORT   CLOUDY    73  70  88 CALM      30.00F
HANA*            N/A     73 N/A N/A SW3         N/A
HALEAKALA SUMM   N/A     46   3  17 E10         N/A
MAALAEA BAY*   NOT AVBL
HALEAKALA*     NOT AVBL
KAUPO GAP*     NOT AVBL
KULA 1*          N/A    N/A N/A N/A NE5         N/A
$$

HIZ023>026-201200-
BIG ISLAND OF HAWAII COAST AND LOWER SLOPES-

CITY           SKY/WX    TMP DP  RH WIND       PRES   REMARKS
KAILUA KONA    CLOUDY    78  65  63 SE5       29.94F
HILO           MOCLDY    72  69  90 SW6       29.97F
HONOKAA*       NOT AVBL
KAWAIHAE MWT*    N/A     79 N/A N/A NE6         N/A
KAWAIHAE*        N/A     79 N/A N/A NE3         N/A
SOUTH POINT*     N/A     68 N/A N/A N8          N/A
UPOLU AIRPORT*   N/A    N/A N/A N/A E13G18      N/A
KAMUELA*       PTSUNNY   63  61  94 NE8       30.07F
HAKALAU*         N/A     46  41  81 SW5G10      N/A
KALOKO-HONOKO*   N/A     73  72  94 NE3       29.93F
PALI 2*          N/A     64  59  82 N7          N/A
KEALAKOMO*       N/A     75  64  69 VRB8G18     N/A
KAUPULEHU*     NOT AVBL
KAPAPALA*        N/A     62  59  89 N3          N/A
LOWER KAHUKU*  NOT AVBL
PUHE CS*       NOT AVBL
PUHO CS*         N/A     73  70  89 NE2         N/A
PTA KEAMUKU*     N/A     59  50  72 SE10        N/A
WAIKOLOA*      NOT AVBL
$$

HIZ027>028-201200-
BIG ISLAND OF HAWAII INTERIOR AND SUMMMITS-

CITY           SKY/WX    TMP DP  RH WIND       PRES   REMARKS
BRADSHAW FIELD PTCLDY    50  37  62 SE5       30.31F
MK VISITOR CEN   N/A      0   0 100 MISG        N/A
MAUNA KEA*       N/A     37 -20   8 SE3         N/A
MAUNA LOA*       N/A     43   0  16 MISG        N/A
MAUNA LOA 1*   NOT AVBL
PTA KIPUKA*      N/A     57  55  94 SW3         N/A
PTA RANGE 17*    N/A     57  50  77 E6G12       N/A
PTA WEST*        N/A     61  52  72 S3G9        N/A
NENE CABIN*    NOT AVBL
AHUMOA*        NOT AVBL
PTA PORTABLE*  NOT AVBL
PUU MALI*      NOT AVBL
$$

HIC003-201200-
NORTHWEST ISLANDS-

CITY           SKY/WX    TMP DP  RH WIND       PRES   REMARKS
MIDWAY ISLAND  CLEAR     79  72  78 CALM      30.07S
MIDWAY NOS*    NOT AVBL
FRENCH FRIGATE NOT AVBL
$$

PHZ110>124-180-201200-
BUOY REPORTS

STATION/POSITION TIME  TEMP    WIND        PRES    WAVE   SWELL
                       AIR SEA DIR/SP/G            HT/PER HT/DIR
                 (UTC) (F)     (DEG/KT/KT) (MB)    (FT/S) (FT/D)
BUOY 51001       NOT AVBL
BUOY 51101       NOT AVBL
BUOY 51100       1100   76 78  140/ 12/ 14 1016.2F
BUOY 51003       1100   80 82   80/ 10/ 10 1014.2F   5/ 7   5
BUOY 51004       1045   78 80   40/ 14/ 17 1012.7F   5/ 7   3/ 80
BARBERS PT BUOY  NOT AVBL
WAIMEA BAY BUOY  1100      81                N/A     3/ 7
KAILUA BAY BUOY  1100      80                N/A     5/ 7   2/140
LANAI BUOY       NOT AVBL
BARBERS PT 2     1100      81                N/A     3/11   2/180
PAUWELA MAUI     1100      80                N/A     4/ 8   2/ 50
HILO             NOT AVBL
KANEOHE BAY BUOY 1100      80                N/A     4/ 7
HANALEI KAUAI    NOT AVBL
KAHULUI HARBOR   1100   76 81   40/  7/ 11 1015.0F
HONOLULU HARBOR  1100   78     100/  3/  6 1015.2F
KILO NALU        NOT AVBL
HILO HARBOR      1100   72     210/  5/  7 1014.4F
MOKUOLOE         1100      82              1015.5F
NAWILIWILI       1100      82                N/A
WHOTS BUOY       NOT AVBL
BUOY 51028       NOT AVBL
$$

......................KEY........................................
  SKY/WX - SKY CONDITIONS/PRESENT WEATHER
  TMP    - TEMPERATURE IN FAHRENHEIT
  DWPT   - DEWPOINT IN FAHRENHEIT
  RH     - RELATIVE HUMIDITY IN PERCENT
  WIND   - DIRECTION AND SPEED /MPH FOR ISLANDS...KTS FOR BUOYS/
  PRES   - MEAN SEA LEVEL PRESSURE IN INCHES OF HG
  VSB    - VISIBILITY IN MILES
  HX     - HEAT INDEX
  WCI    - WIND CHILL INDEX
  VRB    - VARIABLE WIND DIRECTION
  N/A    - NOT AVAILABLE


USA.gov is the U.S. government's official web portal to all federal, state and local government web resources and services.